Total_Precipitation_Accumulation
0.06 0.05 0.09 0.08 0.07 0.06 0.09 0.12 0.14 0.14 0.12 0.09 0.06 0.05 0.03 0.02 0.03 0.04 0.04 0.06 0.07 0.09 0.11 0.13 0.14 0.13 0.12 0.12 0.13 0.14 0.17 0.19 0.19 0.20 0.24 0.28 0.33 0.42 0.56 0.59 0.76 0.56 0.34
0.02 0.04 0.10 0.10 0.08 0.07 0.09 0.11 0.14 0.13 0.12 0.11 0.10 0.07 0.04 0.04 0.04 0.04 0.06 0.08 0.08 0.09 0.10 0.09 0.08 0.08 0.07 0.08 0.10 0.11 0.15 0.17 0.24 0.33 0.40 0.40 0.44 0.56 0.62 0.57 0.79 0.47 0.30
0.02 0.03 0.07 0.11 0.08 0.07 0.08 0.10 0.13 0.12 0.13 0.12 0.11 0.09 0.06 0.05 0.05 0.06 0.08 0.08 0.09 0.09 0.08 0.07 0.07 0.06 0.06 0.07 0.08 0.11 0.13 0.19 0.33 0.53 0.79 0.69 0.37 0.53 0.56 0.50 0.46 0.27 0.24
0.02 0.02 0.03 0.09 0.09 0.07 0.07 0.09 0.12 0.12 0.13 0.12 0.10 0.10 0.08 0.08 0.07 0.08 0.08 0.09 0.11 0.10 0.07 0.07 0.05 0.05 0.05 0.06 0.08 0.11 0.16 0.23 0.41 0.75 1.12 0.68 0.31 0.30 0.37 0.34 0.29 0.22 0.19
0.04 0.03 0.04 0.07 0.08 0.09 0.08 0.09 0.09 0.10 0.11 0.11 0.10 0.09 0.09 0.10 0.10 0.09 0.10 0.12 0.12 0.10 0.08 0.07 0.05 0.04 0.05 0.06 0.08 0.11 0.18 0.27 0.49 0.85 0.83 0.68 0.60 0.32 0.25 0.27 0.25 0.20 0.17
0.06 0.05 0.07 0.09 0.09 0.09 0.08 0.08 0.08 0.09 0.09 0.10 0.10 0.10 0.10 0.10 0.10 0.11 0.11 0.12 0.13 0.10 0.08 0.06 0.05 0.04 0.05 0.07 0.10 0.14 0.22 0.34 0.55 0.55 0.52 0.58 0.56 0.37 0.27 0.33 0.31 0.24 0.20
0.14 0.12 0.11 0.14 0.14 0.12 0.10 0.10 0.09 0.09 0.09 0.10 0.11 0.10 0.09 0.10 0.12 0.12 0.11 0.11 0.13 0.11 0.09 0.06 0.05 0.06 0.07 0.08 0.12 0.17 0.26 0.42 0.52 0.43 0.47 0.69 0.61 0.38 0.38 0.55 0.58 0.44 0.29
0.29 0.21 0.16 0.18 0.19 0.17 0.15 0.14 0.13 0.12 0.12 0.12 0.11 0.11 0.10 0.12 0.12 0.12 0.10 0.11 0.14 0.15 0.11 0.08 0.06 0.07 0.09 0.10 0.12 0.17 0.27 0.34 0.34 0.41 0.50 0.61 0.49 0.43 0.55 0.78 0.83 0.67 0.50
0.35 0.34 0.28 0.20 0.19 0.20 0.22 0.23 0.21 0.17 0.17 0.16 0.13 0.12 0.11 0.13 0.14 0.14 0.14 0.15 0.16 0.17 0.16 0.13 0.10 0.10 0.11 0.12 0.13 0.17 0.25 0.34 0.42 0.52 0.57 0.54 0.38 0.41 0.62 0.80 0.75 0.70 0.61
0.48 0.44 0.43 0.37 0.32 0.25 0.24 0.27 0.28 0.26 0.24 0.21 0.18 0.16 0.16 0.18 0.20 0.21 0.20 0.22 0.23 0.24 0.23 0.24 0.21 0.19 0.19 0.20 0.22 0.24 0.30 0.29 0.47 0.52 0.70 0.71 0.48 0.57 0.82 0.94 0.83 0.75 0.68
0.67 0.52 0.45 0.46 0.43 0.36 0.27 0.25 0.29 0.30 0.29 0.27 0.28 0.27 0.29 0.40 0.51 0.56 0.54 0.57 0.55 0.52 0.49 0.45 0.45 0.43 0.37 0.28 0.35 0.48 0.37 0.25 0.51 0.63 0.72 0.73 0.62 0.80 1.09 1.15 1.08 0.95 0.84
0.90 0.63 0.56 0.46 0.43 0.38 0.30 0.37 0.42 0.43 0.46 0.43 0.54 0.60 0.72 0.87 0.85 0.70 0.89 0.99 0.96 1.00 0.91 0.87 1.02 0.87 0.65 0.57 0.92 1.27 0.56 0.37 0.49 0.60 0.63 0.66 0.91 1.21 1.46 1.36 1.22 1.14 1.03
0.94 0.97 0.91 0.72 0.60 0.55 0.60 0.53 0.54 0.63 0.78 0.75 0.77 0.92 1.16 1.08 0.90 0.80 0.93 1.23 1.38 1.47 1.41 1.49 1.57 1.18 1.13 1.29 1.44 1.36 0.86 0.76 0.78 0.77 0.80 1.03 1.37 1.67 1.79 1.56 1.39 1.31 1.23
1.28 1.46 1.56 1.22 1.08 0.92 0.87 0.80 0.72 0.73 0.90 1.05 1.22 1.28 1.45 1.48 1.33 1.17 1.21 1.41 1.59 1.73 2.04 2.03 1.90 1.74 1.69 1.60 1.52 1.35 1.19 1.19 1.11 1.23 1.44 1.39 1.53 1.77 1.97 1.83 1.61 1.52 1.47
1.86 1.99 2.22 1.76 1.52 1.40 1.40 1.32 1.11 1.13 1.21 1.32 1.54 1.66 1.76 1.93 1.88 1.79 1.71 1.66 1.55 1.72 2.05 2.24 2.13 2.12 2.05 1.93 1.73 1.57 1.44 1.39 1.35 1.48 1.60 1.78 1.78 1.75 1.87 2.00 1.89 1.71 1.62
2.31 2.42 2.54 2.39 2.26 2.03 1.87 1.84 1.75 1.49 1.49 1.49 1.60 1.63 1.82 2.05 2.28 2.36 2.24 2.09 1.78 1.74 1.84 2.15 2.25 2.38 2.27 2.13 1.58 1.50 1.50 1.52 1.57 1.57 1.65 2.12 2.15 1.78 1.68 1.79 1.93 1.92 1.82
3.06 2.95 2.93 2.88 3.01 2.76 2.42 2.15 1.91 1.78 1.78 1.84 1.87 1.81 1.97 2.21 2.42 2.42 2.20 1.87 1.67 1.75 1.83 1.77 1.82 2.13 1.91 1.76 1.57 1.66 1.69 1.59 1.56 1.57 1.62 1.96 2.01 1.68 1.46 1.43 1.62 1.78 1.90
3.78 3.56 3.36 3.01 3.15 3.12 2.87 2.62 2.30 2.08 2.12 2.01 1.86 1.78 1.85 2.06 2.07 2.11 1.76 1.39 1.46 1.67 1.74 1.72 1.67 1.76 1.74 1.78 1.76 1.71 1.69 1.57 1.35 1.29 1.21 1.22 1.37 1.19 1.27 1.43 1.42 1.42 1.68
4.03 4.11 4.03 3.90 3.56 3.40 3.23 3.01 2.74 2.49 2.19 1.88 1.79 1.72 1.60 1.52 1.53 1.63 1.36 1.24 1.34 1.47 1.50 1.47 1.63 1.74 1.63 1.68 1.67 1.56 1.28 1.16 1.03 0.92 0.89 0.83 0.89 0.96 0.97 1.13 1.20 1.26 1.59
3.89 4.34 4.47 4.39 3.94 3.49 3.08 2.72 2.56 2.33 2.11 1.89 1.73 1.55 1.33 1.22 1.22 1.39 1.28 1.16 1.28 1.36 1.34 1.49 1.61 1.68 1.46 1.42 1.34 1.09 0.90 0.69 0.65 0.61 0.53 0.59 0.63 0.65 0.74 0.91 1.16 1.03 1.41
3.57 4.11 4.22 4.22 3.59 2.93 2.53 2.23 2.08 1.85 1.63 1.59 1.51 1.37 1.29 1.19 1.15 1.30 1.20 1.10 1.09 1.12 1.10 1.24 1.35 1.35 1.12 1.32 1.46 1.01 0.70 0.54 0.47 0.37 0.36 0.42 0.45 0.53 0.70 0.95 1.14 1.15 1.28
3.12 3.67 3.67 3.20 2.75 2.31 1.97 1.78 1.64 1.53 1.35 1.22 1.08 1.02 0.95 0.94 0.98 1.04 1.02 0.91 0.89 0.93 0.90 0.98 1.11 1.10 0.97 1.22 1.37 1.28 0.95 0.73 0.56 0.38 0.38 0.39 0.44 0.56 0.65 0.76 1.05 1.21 1.24
2.78 2.81 2.40 2.07 1.83 1.60 1.44 1.35 1.32 1.22 1.04 0.84 0.70 0.65 0.66 0.69 0.70 0.69 0.69 0.72 0.78 0.76 0.79 0.85 1.00 1.10 0.98 1.00 1.21 1.36 1.13 0.83 0.72 0.55 0.52 0.56 0.61 0.70 0.77 0.91 1.03 1.15 1.24
2.01 1.88 1.74 1.56 1.37 1.27 1.26 1.17 1.14 0.93 0.79 0.67 0.54 0.55 0.57 0.55 0.53 0.50 0.52 0.62 0.69 0.72 0.79 0.71 0.75 0.92 0.98 0.89 0.97 1.08 1.10 1.12 1.06 0.80 0.59 0.56 0.63 0.68 0.70 0.75 0.86 1.01 1.10
1.33 1.33 1.25 1.35 1.37 1.25 1.16 1.08 1.05 0.89 0.73 0.59 0.55 0.60 0.59 0.55 0.51 0.45 0.45 0.48 0.57 0.64 0.71 0.71 0.73 0.77 0.83 0.82 0.83 0.87 0.94 1.04 1.04 0.98 0.75 0.58 0.58 0.57 0.63 0.69 0.78 0.85 0.93
0.78 0.86 0.93 1.04 1.15 1.10 1.02 0.97 0.94 0.85 0.74 0.60 0.54 0.54 0.50 0.48 0.47 0.45 0.45 0.47 0.48 0.50 0.53 0.59 0.64 0.68 0.74 0.76 0.76 0.82 0.91 0.89 0.89 1.01 0.90 0.74 0.69 0.62 0.69 0.75 0.87 0.96 0.97